This is the latest recevied weather packets stored in our database for station/object PTG2-WX. If no packets are shown the sender has not sent any weather packets the latest 10 day(s).
| Time | Temp. | Humidity | Pressure | Rain* | Wind** | Luminosity | Snow |
|---|---|---|---|---|---|---|---|
| 1788041834 | 17.22° C | 83% | 1016.9 hPa | - | - | - | - |
| 1788038234 | 17.22° C | 81% | 1017.4 hPa | - | - | - | - |
| 1788034634 | 17.22° C | 81% | 1017.6 hPa | - | - | - | - |
| 1788031034 | 17.22° C | 81% | 1017.8 hPa | - | - | - | - |
| 1788027434 | 17.22° C | 81% | 1018 hPa | - | - | - | - |
| 1788023835 | 17.78° C | 78% | 1017.3 hPa | - | - | - | - |
| 1788020234 | 17.78° C | 80% | 1016.6 hPa | - | - | - | - |
| 1788016634 | 20° C | 66% | 1016.3 hPa | - | - | - | - |
| 1788013040 | 20.56° C | 63% | 1016.5 hPa | - | - | - | - |
| 1788009435 | 21.11° C | 57% | 1016.6 hPa | - | - | - | - |
| 1788005835 | 21.67° C | 50% | 1016.5 hPa | - | - | - | - |
| 1788002235 | 23.33° C | 44% | 1016 hPa | - | - | - | - |
| 1787998634 | 23.33° C | 43% | 1016 hPa | - | - | - | - |
| 1787995033 | 23.33° C | 46% | 1015.6 hPa | - | - | - | - |
| 1787991434 | 22.78° C | 51% | 1015.8 hPa | - | - | - | - |
| 1787987834 | 21.67° C | 61% | 1016.5 hPa | - | - | - | - |
| 1787984234 | 20.56° C | 67% | 1017 hPa | - | - | - | - |
| 1787980634 | 19.44° C | 70% | 1016.7 hPa | - | - | - | - |
| 1787977034 | 18.33° C | 74% | 1016.2 hPa | - | - | - | - |
| 1787973433 | 17.78° C | 76% | 1016.4 hPa | - | - | - | - |
| 1787969833 | 17.22° C | 77% | 1016.1 hPa | - | - | - | - |
| 1787966234 | 17.78° C | 74% | 1016.3 hPa | - | - | - | - |
| 1787962634 | 17.78° C | 72% | 1015.9 hPa | - | - | - | - |
| 1787959034 | 18.33° C | 70% | 1015.5 hPa | - | - | - | - |
| 1787955433 | 18.89° C | 68% | 1015.7 hPa | - | - | - | - |
* Rain since midnight (hover to see other rain measurements)
** Current wind speed in m/s (hover to see current wind gust speed)